SM5FGQ-2 Weather Reports


Display with metric or nautical units.
time (UTC)temp
F
wind
direction
speed
MPH
gust
MPH
rain 1hr
in
rain 24hr
in
rain mn
in
humidity
%
barometer
mb
20260831103042 68 277 3.0 9.0 0.00 0.22 0.01 62 1002.6
20260831100031 67 264 4.0 10.0 0.00 0.23 0.01 64 1002.4
20260831093041 65 239 3.0 14.0 0.00 0.35 0.01 68 1002.5
20260831090112 64 259 3.0 9.0 0.00 0.36 0.01 71 1002.7
20260831083104 63 234 3.0 10.0 0.00 0.36 0.01 76 1002.6
20260831080053 63 234 2.0 7.0 0.00 0.36 0.01 79 1002.5
20260831073045 61 242 1.0 5.0 0.00 0.36 0.01 82 1002.3
20260831070035 60 234 1.0 5.0 0.00 0.36 0.01 84 1002.2
20260831063023 59 256 1.0 6.0 0.00 0.36 0.01 87 1001.9
20260831060115 59 240 1.0 4.0 0.00 0.36 0.01 90 1001.7
20260831053104 58 248 1.0 6.0 0.00 0.36 0.01 91 1001.5
20260831050053 58 218 1.0 3.0 0.00 0.36 0.01 92 1001.4
20260831043043 58 223 1.0 5.0 0.00 0.36 0.01 93 1001.2
20260831040053 58 267 2.0 5.0 0.00 0.36 0.01 94 1000.9
20260831033023 59 255 1.0 6.0 0.00 0.36 0.01 94 1000.7
20260831030114 59 245 2.0 10.0 0.00 0.36 0.01 95 1000.5
20260831023104 59 247 2.0 6.0 0.00 0.36 0.01 97 1000.5
20260831020054 59 230 2.0 9.0 0.00 0.36 0.01 98 1000.3
20260831013044 60 243 3.0 8.0 0.00 0.36 0.01 99 1000.2
20260831010034 60 242 4.0 9.0 0.00 0.36 0.01 99 999.9
20260831003024 61 255 4.0 16.0 0.00 0.36 0.01 99 999.5
20260831000156 62 264 3.0 9.0 0.00 0.37 0.01 99 999.1
20260830233104 62 224 1.0 6.0 0.01 0.37 0.01 99 998.8
20260830230056 61 195 0.0 1.0 0.01 0.37 0.01 99 998.6
20260830223044 61 153 0.0 2.0 0.00 0.36 0.00 99 998.5
20260830220034 61 90 0.0 1.0 0.00 0.36 0.00 99 998.4
20260830213024 61 90 0.0 1.0 0.00 0.36 0.36 99 998.3
20260830210114 61 90 0.0 0.0 0.00 0.36 0.36 99 998.2
20260830203104 61 90 0.0 1.0 0.00 0.36 0.36 99 998.1
20260830200054 61 82 0.0 1.0 0.00 0.36 0.36 98 998.1
20260830193105 61 90 0.0 1.0 0.00 0.36 0.36 97 998.1
20260830190036 62 103 0.0 1.0 0.00 0.36 0.36 96 998.1
20260830183025 62 45 0.0 1.0 0.01 0.36 0.36 94 998.2
20260830180116 63 45 0.0 1.0 0.18 0.36 0.36 90 998.2
20260830173106 65 178 0.0 3.0 0.17 0.35 0.35 89 998.4
20260830170058 65 304 0.0 1.0 0.02 0.18 0.17 88 998.4
20260830163049 66 220 0.0 2.0 0.02 0.18 0.17 86 998.5
20260830160037 66 135 0.0 2.0 0.00 0.16 0.15 84 998.8
20260830153028 67 210 0.0 3.0 0.00 0.16 0.15 83 999.0
20260830150018 66 118 1.0 4.0 0.00 0.16 0.15 83 999.3
20260830143107 66 209 0.0 3.0 0.00 0.16 0.15 82 999.5
20260830140057 66 105 1.0 5.0 0.00 0.16 0.15 81 999.7
20260830133047 66 145 1.0 3.0 0.00 0.16 0.15 80 1000.0
20260830130038 66 158 2.0 6.0 0.00 0.16 0.15 83 1000.1
20260830123026 65 131 1.0 3.0 0.00 0.16 0.15 84 1000.4
20260830120016 65 288 0.0 2.0 0.00 0.16 0.15 83 1000.6
20260830113108 65 182 1.0 3.0 0.00 0.16 0.15 86 1000.9
20260830110057 64 191 1.0 5.0 0.01 0.16 0.15 87 1001.1